This demonstration page uses our WeatherBlox Daily Observations layout. Learn more.

Left ArrowRight Arrow

44.89941, -97.11507

Hourly Observations for November 1, 2020

Temp ( °F °C ) Dew Point ( °F °C ) Humidity (%) Winds ( mph kmh ) Pressure ( in mb ) Visibility ( mi km ) Precip ( " mm )
12:53 am 00:53 Clear 30 -1.1 20 -6.7 66 66 NNW 23 37 30.28 1025 10 16 0.00 0.00
1:53 am 01:53 Cloudy 30 -1.1 20 -6.7 66 66 NNW 23 37 30.30 1026 10 16 0.00 0.00
1:44 am 01:44 Mostly Cloudy 28 -2.2 20 -6.7 72 72 NNW 20 31 30.37 1028 10 16 0.00 0.00
1:53 am 01:53 Mostly Cloudy 28 -2.2 20 -6.7 72 72 NW 17 28 30.32 1027 10 16 0.00 0.00
2:01 am 02:01 Partly Cloudy 28 -2.2 20 -6.7 72 72 NW 14 22 30.38 1029 10 16 0.00 0.00
2:53 am 02:53 Mostly Clear 27 -2.8 20 -6.7 75 75 NNW 17 28 30.35 1028 10 16 0.00 0.00
3:53 am 03:53 Clear 26 -3.3 19 -7.2 75 75 NW 15 24 30.36 1028 10 16 0.00 0.00
4:53 am 04:53 Mostly Clear 25 -3.9 19 -7.2 78 78 NNW 16 26 30.40 1030 10 16 0.00 0.00
5:10 am 05:10 Mostly Cloudy 25 -3.9 20 -6.7 81 81 NW 16 26 30.46 1031 10 16 0.00 0.00
5:53 am 05:53 Mostly Cloudy 24 -4.4 20 -6.7 84 84 NNW 13 20 30.44 1031 10 16 0.00 0.00
6:05 am 06:05 Mostly Clear 23 -5 19 -7.2 85 85 NNW 13 20 30.50 1033 10 16 0.00 0.00
6:53 am 06:53 Clear 22 -5.6 18 -7.8 85 85 NW 12 19 30.46 1032 10 16 0.00 0.00
7:53 am 07:53 Sunny 23 -5 19 -7.2 85 85 NW 13 20 30.49 1033 10 16 0.00 0.00
8:53 am 08:53 Sunny 24 -4.4 19 -7.2 81 81 NW 10 17 30.52 1034 10 16 0.00 0.00
9:53 am 09:53 Sunny 27 -2.8 19 -7.2 72 72 NW 8 13 30.53 1034 10 16 0.00 0.00
10:53 am 10:53 Sunny 30 -1.1 20 -6.7 66 66 W 7 11 30.54 1034 10 16 0.00 0.00
11:53 am 11:53 Sunny 33 0.6 20 -6.7 58 58 NW 8 13 30.53 1034 10 16 0.00 0.00
12:53 pm 12:53 Sunny 35 1.7 19 -7.2 52 52 SW 6 9 30.52 1033 10 16 0.00 0.00
1:53 pm 13:53 Sunny 37 2.8 21 -6.1 52 52 SSW 7 11 30.49 1033 10 16 0.00 0.00
2:53 pm 14:53 Sunny 39 3.9 18 -7.8 43 43 SW 8 13 30.47 1032 10 16 0.00 0.00
3:53 pm 15:53 Sunny 39 3.9 20 -6.7 46 46 SW 9 15 30.46 1032 10 16 0.00 0.00
4:53 pm 16:53 Sunny 35 1.7 22 -5.6 59 59 SSW 8 13 30.45 1031 10 16 0.00 0.00
5:53 pm 17:53 Clear 30 -1.1 22 -5.6 72 72 S 8 13 30.45 1031 10 16 0.00 0.00
6:53 pm 18:53 Clear 29 -1.7 22 -5.6 75 75 S 6 9 30.44 1031 10 16 0.00 0.00
7:53 pm 19:53 Clear 30 -1.1 22 -5.6 72 72 S 9 15 30.41 1030 10 16 0.00 0.00
8:53 pm 20:53 Clear 31 -0.6 22 -5.6 69 69 S 10 17 30.39 1029 10 16 0.00 0.00
9:53 pm 21:53 Clear 31 -0.6 23 -5 72 72 S 12 19 30.36 1028 10 16 0.00 0.00
10:53 pm 22:53 Clear 31 -0.6 23 -5 72 72 S 12 19 30.32 1027 10 16 0.00 0.00
11:53 pm 23:53 Clear 31 -0.6 22 -5.6 69 69 SSE 9 15 30.30 1026 10 16 0.00 0.00

Powered by AerisWeather